{"data":{"norad_id":58864,"intl_designator":"2024-019M","name":"STARLINK-31242","alt_names":[],"object_type":"PAYLOAD","status":"ACTIVE","operator":null,"country":"US","launch_date":"2024-01-29","launch_site_code":"AFETR","launch_vehicle":null,"mission":null,"orbit_class":"UNKNOWN","rcs_meters":null,"size_class":null,"mass_kg":null,"dimensions":null,"purposes":["comms"],"wikipedia_slug":null,"has_3d_model":false,"image_url":null,"decayed_at":null,"tle_current":{"epoch":"2026-09-20T22:36:04.775616Z","epoch_age_seconds":114367,"freshness":"FRESH","line1":"1 58864U 24019M   26263.94172194 -.00000589  00000+0 -11875-4 0  9992","line2":"2 58864  43.0023 226.2457 0000772 272.3210  87.7553 15.27576775148949","mean_motion":15.27576775,"eccentricity":7.72e-5,"inclination_deg":43.0023,"raan_deg":226.2457,"arg_perigee_deg":272.321,"mean_anomaly_deg":87.7553,"bstar":-1.1875e-5,"rev_number":14894,"period_min":94.266947728372,"perigee_km":482.52906855471,"apogee_km":483.58843717895,"semimajor_km":6861.1957528668,"source":"CELESTRAK","updated_at":"2026-09-21T09:00:33.989174Z"}}}